User: anonymous   Login
Location: Unspecified
(0.0000°N, 0.0000°E)
Time: 00:32:51
(UTC+00:00)
Language:

SJ-12 - Orbit

View from above orbital plane
View from above orbital plane
View from above satellite
View from above satellite

Ground track
Ground track

The orbit data is extracted from the following two-line orbital elements,

1 36596U 10027A   19167.71487079 -.00000003  00000-0  47547-5 0  9992
2 36596  97.6246 160.2469 0013067 104.8656 255.4003 14.96523332490987
Epoch (UTC): 16 June 2019 17:09:24
Eccentricity: 0.0013067
inclination: 97.6246°
perigee height: 568 km
apogee height: 587 km
right ascension of ascending node: 160.2469°
argument of perigee: 104.8656°
revolutions per day: 14.96523332
mean anomaly at epoch: 255.4003°
orbit number at epoch: 49098

The dashed part of the orbit path shows where the satellite is in the earth's shadow,  

DLR